Terug naar catalogus

SL-8 DEB

ActiefLEO
NORAD 15756·DEBRIS·🇷🇺 Russia

Gelanceerd Aug 3, 1983 vanaf Plesetsk Cosmodrome

Loading…

Volgende Passages (komende 24 uur)

TLE

VersSource: Space-Track

Epoch: Sep 14, 2026, 06:23 UTC

1 15756U 83079D   26257.26645341  .00003408  00000-0  37950-3 0  9996
2 15756  74.0435 354.2153 0007252 119.4782 240.7122 14.87504974191569

Volg SL-8 DEB in realtime met AllMySat

Download on the App Store